Regional Weather Roundup
Issued by NWS Goodland, KS

Home | Current Version | Previous Version | Graphics & Text | Print | Product List | Glossary Off
Versions: 1 2 3 4 5 6 7 8 9 10 11 12 13 14 15 16 17 18 19 20 21 22 23 24 25 26 27 28 29 30 31 32 33 34 35 36 37 38 39 40 41 42 43 44 45 46 47 48 49 50

000
ASUS43 KGLD 012108
RWRGLD

GOODLAND FORECAST AREA HOURLY WEATHER ROUNDUP
NATIONAL WEATHER SERVICE GOODLAND KS
300 PM MDT WED OCT 01 2014

...OFFICIAL OBSERVATIONS...

CITY           SKY/WX    TMP DP  RH WIND       PRES   REMARKS
GOODLAND KS    MOSUNNY   74  39  28 CALM      29.80S
HILL CITY KS   MOSUNNY   79  54  41 SE3       29.73F
IMPERIAL NEB   MOSUNNY   74  42  31 NE8       29.78F
MCCOOK NEB     MOSUNNY   78  45  30 VRB3      29.75F
AKRON CO       SUNNY     66  40  38 MISG      29.83F
BURLINGTON CO  MOSUNNY   71  37  28 VRB3      29.82S
LIMON CO       SUNNY     66  34  30 S13       29.83F
$$

...UNOFFICIAL OBSERVATIONS...

CITY           SKY/WX    TMP DP  RH WIND       PRES   REMARKS
COLBY KS       SUNNY     77  45  31 CALM      29.78S
GOVE KS          N/A     80  32  17 MISG        N/A
NORTON KS      MOSUNNY   81  41  24 SE7       29.72
SHARON SPRINGS   N/A     76  45  32 CALM        N/A
TRENTON NEB      N/A     75  32  20 NE7         N/A
KIT CARSON CO    N/A     71  40  32 MISG        N/A
YUMA CO          N/A     70  40  33 CALM        N/A
$$



USA.gov is the U.S. government's official web portal to all federal, state and local government web resources and services.